This demonstration page uses our WeatherBlox Daily Observations layout. Learn more.

Left ArrowRight Arrow

Hourly Observations for May 28, 2021

Temp ( °F °C ) Dew Point ( °F °C ) Humidity (%) Winds ( mph kmh ) Pressure ( in mb ) Visibility ( mi km ) Precip ( " mm )
12:53 am 00:53 Clear 63 17.2 43 6.1 48 48 S 10 17 29.70 1006 10 16 0.00 0.00
1:53 am 01:53 Mostly Clear 62 16.7 44 6.7 52 52 SSE 9 15 29.71 1006 10 16 0.00 0.00
2:20 am 02:20 Clear 56 13.3 44 6.7 65 65 N 16 26 29.75 1007 10 16 0.00 0.00
2:53 am 02:53 Partly Cloudy 57 13.9 45 7.2 64 64 NW 13 20 29.79 1009 10 16 0.00 0.00
3:53 am 03:53 Partly Cloudy 55 12.8 45 7.2 69 69 WSW 18 30 29.82 1010 10 16 0.00 0.00
4:53 am 04:53 Cloudy 54 12.2 45 7.2 72 72 WSW 10 17 29.84 1010 10 16 0.00 0.00
5:53 am 05:53 Cloudy 54 12.2 45 7.2 72 72 SW 8 13 29.85 1011 10 16 0.01 0.25
6:53 am 06:53 Mostly Cloudy 55 12.8 45 7.2 69 69 SW 9 15 29.86 1011 10 16 0.00 0.00
7:53 am 07:53 Sunny 57 13.9 39 3.9 51 51 W 15 24 29.88 1012 10 16 0.00 0.00
8:53 am 08:53 Sunny 59 15 34 1.1 39 39 W 22 35 29.88 1012 10 16 0.00 0.00
9:53 am 09:53 Sunny 61 16.1 33 0.6 35 35 WSW 21 33 29.87 1012 10 16 0.00 0.00
10:53 am 10:53 Sunny 64 17.8 31 -0.6 29 29 WSW 26 43 29.85 1011 10 16 0.00 0.00
11:53 am 11:53 Mostly Sunny 65 18.3 28 -2.2 25 25 W 29 46 29.86 1011 10 16 0.00 0.00
12:53 pm 12:53 Sunny 65 18.3 27 -2.8 24 24 W 25 41 29.87 1011 10 16 0.00 0.00
1:53 pm 13:53 Mostly Sunny 65 18.3 27 -2.8 24 24 WSW 32 52 29.87 1012 10 16 0.00 0.00
2:53 pm 14:53 Mostly Sunny 65 18.3 28 -2.2 25 25 WSW 25 41 29.89 1012 10 16 0.00 0.00
3:53 pm 15:53 Sunny 66 18.9 29 -1.7 25 25 W 24 39 29.88 1012 10 16 0.00 0.00
4:53 pm 16:53 Mostly Cloudy 62 16.7 27 -2.8 26 26 W 23 37 29.90 1013 10 16 0.00 0.00
5:53 pm 17:53 Sunny 64 17.8 29 -1.7 27 27 W 31 50 29.91 1013 10 16 0.00 0.00
6:53 pm 18:53 Sunny 63 17.2 29 -1.7 28 28 W 26 43 29.91 1013 10 16 0.00 0.00
7:53 pm 19:53 Sunny 60 15.6 31 -0.6 33 33 W 23 37 29.92 1013 10 16 0.00 0.00
8:53 pm 20:53 Sunny 57 13.9 32 0 39 39 WSW 15 24 29.95 1014 10 16 0.00 0.00
9:53 pm 21:53 Clear 51 10.6 34 1.1 52 52 WSW 12 19 29.99 1016 10 16 0.00 0.00
10:53 pm 22:53 Clear 51 10.6 33 0.6 50 50 WSW 16 26 30.00 1016 10 16 0.00 0.00
11:53 pm 23:53 Clear 50 10 33 0.6 52 52 W 17 28 30.01 1016 10 16 0.00 0.00

Powered by AerisWeather